UAL1582 KDFW-KLAX

Flight info

Callsign UAL1582
Flight time 3h 3m
Altitude 36000
Route KATZZ2 BRHMA CNX ONM SJN DRK J231 HIPPI GABBL HLYWD1
Aircraft B38M/M-SDE1FGHILORVWXY/HB1

Departure

Time 2026-04-26 19:34
Airport Dallas Fort Worth International Airport (KDFW)

Arrival

Time 2026-04-26 22:38
Airport Los Angeles International Airport (KLAX)
Time Latitude Longitude Altitude Speed Heading
2026-04-26 19:08 32.90674 -97.03583 600 ft 0 kts 221°
2026-04-26 19:23 32.90677 -97.03583 600 ft 4 kts 249°
2026-04-26 19:23 32.90692 -97.03567 600 ft 4 kts 216°
2026-04-26 19:24 32.90715 -97.03552 600 ft 4 kts 193°
2026-04-26 19:24 32.90737 -97.03554 600 ft 3 kts 139°
2026-04-26 19:24 32.90744 -97.03561 600 ft 0 kts 135°
2026-04-26 19:29 32.90740 -97.03557 600 ft 4 kts 135°
2026-04-26 19:29 32.90683 -97.03505 600 ft 14 kts 161°
2026-04-26 19:29 32.90670 -97.03464 600 ft 1 kts 35°
2026-04-26 19:30 32.90694 -97.03473 600 ft 7 kts 314°
2026-04-26 19:30 32.90742 -97.03555 600 ft 17 kts 303°
2026-04-26 19:30 32.90832 -97.03523 600 ft 16 kts 25°
2026-04-26 19:30 32.90870 -97.03511 600 ft 17 kts
2026-04-26 19:31 32.91011 -97.03428 600 ft 15 kts 95°
2026-04-26 19:31 32.91014 -97.03298 599 ft 17 kts 58°
2026-04-26 19:31 32.91154 -97.03275 599 ft 25 kts 358°
2026-04-26 19:31 32.91351 -97.03272 599 ft 30 kts
2026-04-26 19:32 32.91488 -97.03227 596 ft 16 kts 86°
2026-04-26 19:32 32.91486 -97.03118 586 ft 2 kts 90°
2026-04-26 19:32 32.91486 -97.03111 586 ft 0 kts 90°
2026-04-26 19:33 32.91486 -97.03068 584 ft 14 kts 90°
2026-04-26 19:33 32.91411 -97.02991 583 ft 18 kts 180°
2026-04-26 19:33 32.91096 -97.02992 584 ft 83 kts 180°
2026-04-26 19:34 32.90275 -97.02998 581 ft 150 kts 180°
2026-04-26 19:34 32.89096 -97.03022 971 ft 180 kts 183°
2026-04-26 19:34 32.87814 -97.03075 1854 ft 188 kts 182°
2026-04-26 19:34 32.86467 -97.03223 2631 ft 202 kts 188°
2026-04-26 19:35 32.85006 -97.03442 3139 ft 220 kts 187°
2026-04-26 19:35 32.83428 -97.03672 3719 ft 236 kts 187°
2026-04-26 19:35 32.81771 -97.03906 4490 ft 244 kts 187°
2026-04-26 19:35 32.80066 -97.04143 5312 ft 248 kts 187°
2026-04-26 19:36 32.78348 -97.04381 6212 ft 251 kts 188°
2026-04-26 19:36 32.77159 -97.04544 6724 ft 255 kts 189°
2026-04-26 19:36 32.74813 -97.04866 7794 ft 261 kts 188°
2026-04-26 19:36 32.72999 -97.05182 8526 ft 267 kts 199°
2026-04-26 19:37 32.71393 -97.06275 9228 ft 271 kts 225°
2026-04-26 19:37 32.70321 -97.08109 9509 ft 273 kts 249°
2026-04-26 19:37 32.69836 -97.10297 9659 ft 275 kts 255°
2026-04-26 19:37 32.69374 -97.12501 9783 ft 275 kts 256°
2026-04-26 19:38 32.69208 -97.14760 9888 ft 277 kts 272°
2026-04-26 19:38 32.69332 -97.17054 9969 ft 279 kts 271°
2026-04-26 19:38 32.69453 -97.19342 9975 ft 277 kts 271°
2026-04-26 19:38 32.69581 -97.21632 9999 ft 278 kts 271°
2026-04-26 19:39 32.69712 -97.23921 9996 ft 278 kts 271°
2026-04-26 19:39 32.69931 -97.26202 9998 ft 279 kts 279°
2026-04-26 19:39 32.70345 -97.28456 9968 ft 279 kts 279°
2026-04-26 19:39 32.70746 -97.30721 9989 ft 286 kts 278°
2026-04-26 19:40 32.71161 -97.33120 10374 ft 305 kts 279°
2026-04-26 19:40 32.71593 -97.35671 10644 ft 325 kts 279°
2026-04-26 19:40 32.72045 -97.38372 10969 ft 340 kts 279°
2026-04-26 19:40 32.72506 -97.41129 11459 ft 347 kts 279°
2026-04-26 19:41 32.72979 -97.43976 12207 ft 348 kts 279°
2026-04-26 19:41 32.73444 -97.46776 12921 ft 351 kts 280°
2026-04-26 19:41 32.73915 -97.49628 13639 ft 352 kts 280°
2026-04-26 19:41 32.74234 -97.51562 14065 ft 354 kts 280°
2026-04-26 19:42 32.74864 -97.55375 14937 ft 357 kts 279°
2026-04-26 19:42 32.75344 -97.58289 15602 ft 360 kts 279°
2026-04-26 19:42 32.75825 -97.61211 16236 ft 362 kts 279°
2026-04-26 19:42 32.76308 -97.64155 16823 ft 365 kts 279°
2026-04-26 19:43 32.76795 -97.67121 17517 ft 367 kts 279°
2026-04-26 19:43 32.77285 -97.70114 18117 ft 370 kts 279°
2026-04-26 19:43 32.77794 -97.73109 18617 ft 373 kts 282°
2026-04-26 19:43 32.78513 -97.76091 19113 ft 376 kts 284°
2026-04-26 19:44 32.79229 -97.79088 19593 ft 378 kts 284°
2026-04-26 19:44 32.79941 -97.82116 20075 ft 381 kts 283°
2026-04-26 19:44 32.80652 -97.85164 20556 ft 383 kts 284°
2026-04-26 19:44 32.81365 -97.88231 20923 ft 386 kts 283°
2026-04-26 19:45 32.82080 -97.91317 21401 ft 389 kts 284°
2026-04-26 19:45 32.82803 -97.94437 21865 ft 392 kts 284°
2026-04-26 19:45 32.83527 -97.97568 22324 ft 394 kts 284°
2026-04-26 19:45 32.84255 -98.00722 22775 ft 397 kts 284°
2026-04-26 19:46 32.84987 -98.03895 23222 ft 400 kts 284°
2026-04-26 19:46 32.85724 -98.07094 23609 ft 402 kts 284°
2026-04-26 19:46 32.86463 -98.10306 24013 ft 404 kts 284°
2026-04-26 19:46 32.87206 -98.13539 24430 ft 405 kts 283°
2026-04-26 19:47 32.87939 -98.16733 24832 ft 406 kts 283°
2026-04-26 19:47 32.88441 -98.18922 25103 ft 407 kts 283°
2026-04-26 19:47 32.89443 -98.23280 25607 ft 409 kts 283°
2026-04-26 19:47 32.90187 -98.26500 25978 ft 410 kts 283°
2026-04-26 19:48 32.90955 -98.29827 26336 ft 412 kts 283°
2026-04-26 19:48 32.91715 -98.33123 26692 ft 414 kts 283°
2026-04-26 19:48 32.92466 -98.36390 27022 ft 416 kts 283°
2026-04-26 19:48 32.93231 -98.39716 27370 ft 417 kts 283°
2026-04-26 19:49 32.93997 -98.43052 27701 ft 419 kts 283°
2026-04-26 19:49 32.94767 -98.46412 28038 ft 421 kts 283°
2026-04-26 19:49 32.95537 -98.49774 28457 ft 420 kts 282°
2026-04-26 19:49 32.96301 -98.53118 28977 ft 418 kts 282°
2026-04-26 19:50 32.97063 -98.56454 29504 ft 415 kts 282°
2026-04-26 19:50 32.97818 -98.59762 29996 ft 413 kts 282°
2026-04-26 19:50 32.98569 -98.63058 30420 ft 411 kts 282°
2026-04-26 19:50 32.99316 -98.66346 30826 ft 410 kts 282°
2026-04-26 19:51 33.00060 -98.69618 31213 ft 409 kts 282°
2026-04-26 19:51 33.00800 -98.72882 31607 ft 407 kts 282°
2026-04-26 19:51 33.01537 -98.76134 32012 ft 405 kts 282°
2026-04-26 19:51 33.02269 -98.79371 32406 ft 404 kts 282°
2026-04-26 19:52 33.02997 -98.82594 32820 ft 402 kts 282°
2026-04-26 19:52 33.03722 -98.85807 33205 ft 401 kts 282°
2026-04-26 19:52 33.04443 -98.89005 33601 ft 399 kts 282°
2026-04-26 19:52 33.05159 -98.92188 33952 ft 397 kts 282°
2026-04-26 19:53 33.05862 -98.95316 34292 ft 395 kts 282°
2026-04-26 19:53 33.06569 -98.98464 34645 ft 392 kts 282°
2026-04-26 19:53 33.07270 -99.01594 34993 ft 389 kts 282°
2026-04-26 19:53 33.07965 -99.04698 35333 ft 386 kts 282°
2026-04-26 19:54 33.08655 -99.07782 35644 ft 384 kts 282°
2026-04-26 19:54 33.09342 -99.10858 35736 ft 383 kts 282°
2026-04-26 19:54 33.10701 -99.16956 35731 ft 379 kts 282°
2026-04-26 19:55 33.12055 -99.23039 35726 ft 380 kts 282°
2026-04-26 19:55 33.13404 -99.29121 35718 ft 379 kts 282°
2026-04-26 19:56 33.14750 -99.35208 35716 ft 379 kts 282°
2026-04-26 19:56 33.16094 -99.41296 35712 ft 380 kts 282°
2026-04-26 19:57 33.17436 -99.47389 35716 ft 380 kts 282°
2026-04-26 19:57 33.18776 -99.53487 35712 ft 380 kts 282°
2026-04-26 19:58 33.20123 -99.59588 35717 ft 380 kts 282°
2026-04-26 19:58 33.21504 -99.65634 35715 ft 380 kts 282°
2026-04-26 19:59 33.22889 -99.71735 35716 ft 380 kts 282°
2026-04-26 19:59 33.24271 -99.77838 35716 ft 381 kts 282°
2026-04-26 20:00 33.25649 -99.83940 35718 ft 381 kts 282°
2026-04-26 20:00 33.27026 -99.90050 35712 ft 381 kts 281°
2026-04-26 20:01 33.28399 -99.96162 35712 ft 380 kts 281°
2026-04-26 20:01 33.29769 -100.02271 35706 ft 380 kts 281°
2026-04-26 20:02 33.31124 -100.08332 35704 ft 380 kts 281°
2026-04-26 20:02 33.32265 -100.13447 35695 ft 380 kts 281°
2026-04-26 20:03 33.33846 -100.20552 35697 ft 380 kts 281°
2026-04-26 20:03 33.35201 -100.26657 35693 ft 380 kts 281°
2026-04-26 20:04 33.36555 -100.32771 35694 ft 380 kts 281°
2026-04-26 20:04 33.37905 -100.38884 35692 ft 380 kts 281°
2026-04-26 20:05 33.39252 -100.44998 35692 ft 380 kts 281°
2026-04-26 20:05 33.40586 -100.51071 35692 ft 380 kts 281°
2026-04-26 20:06 33.41927 -100.57191 35686 ft 380 kts 281°
2026-04-26 20:06 33.43264 -100.63309 35684 ft 380 kts 281°
2026-04-26 20:07 33.44599 -100.69430 35683 ft 380 kts 281°
2026-04-26 20:07 33.45932 -100.75562 35684 ft 380 kts 281°
2026-04-26 20:08 33.47262 -100.81692 35683 ft 380 kts 280°
2026-04-26 20:08 33.48590 -100.87827 35683 ft 381 kts 280°
2026-04-26 20:09 33.49916 -100.93969 35678 ft 380 kts 280°
2026-04-26 20:09 33.51238 -101.00103 35681 ft 380 kts 280°
2026-04-26 20:10 33.52517 -101.06239 35675 ft 379 kts 279°
2026-04-26 20:10 33.53743 -101.12324 35678 ft 378 kts 279°
2026-04-26 20:11 33.54981 -101.18448 35676 ft 377 kts 279°
2026-04-26 20:12 33.56824 -101.27603 35661 ft 376 kts 279°
2026-04-26 20:12 33.58045 -101.33684 35665 ft 375 kts 279°
2026-04-26 20:13 33.59263 -101.39765 35662 ft 375 kts 279°
2026-04-26 20:13 33.60476 -101.45839 35684 ft 374 kts 279°
2026-04-26 20:14 33.61678 -101.51873 35703 ft 374 kts 279°
2026-04-26 20:14 33.62884 -101.57946 35729 ft 374 kts 279°
2026-04-26 20:15 33.64087 -101.64022 35758 ft 374 kts 278°
2026-04-26 20:15 33.65287 -101.70095 35784 ft 374 kts 278°
2026-04-26 20:16 33.66482 -101.76163 35788 ft 374 kts 278°
2026-04-26 20:16 33.67674 -101.82229 35787 ft 373 kts 278°
2026-04-26 20:17 33.68864 -101.88305 35786 ft 374 kts 278°
2026-04-26 20:17 33.70050 -101.94378 35778 ft 374 kts 278°
2026-04-26 20:18 33.71225 -102.00412 35748 ft 373 kts 278°
2026-04-26 20:18 33.72406 -102.06488 35718 ft 373 kts 278°
2026-04-26 20:19 33.73582 -102.12559 35689 ft 373 kts 278°
2026-04-26 20:19 33.74757 -102.18641 35715 ft 373 kts 278°
2026-04-26 20:20 33.75928 -102.24723 35725 ft 373 kts 278°
2026-04-26 20:20 33.77096 -102.30804 35732 ft 373 kts 278°
2026-04-26 20:21 33.78261 -102.36887 35731 ft 373 kts 278°
2026-04-26 20:21 33.79228 -102.41949 35721 ft 374 kts 278°
2026-04-26 20:22 33.80585 -102.49069 35692 ft 374 kts 278°
2026-04-26 20:22 33.81546 -102.54130 35676 ft 374 kts 278°
2026-04-26 20:23 33.82701 -102.60226 35649 ft 374 kts 278°
2026-04-26 20:23 33.84041 -102.67315 35632 ft 374 kts 278°
2026-04-26 20:24 33.85003 -102.72426 35638 ft 374 kts 277°
2026-04-26 20:24 33.86150 -102.78531 35623 ft 374 kts 277°
2026-04-26 20:25 33.87292 -102.84633 35640 ft 374 kts 277°
2026-04-26 20:25 33.88425 -102.90695 35632 ft 374 kts 277°
2026-04-26 20:26 33.89561 -102.96799 35628 ft 374 kts 277°
2026-04-26 20:26 33.90695 -103.02907 35636 ft 374 kts 277°
2026-04-26 20:27 33.91826 -103.09018 35632 ft 374 kts 277°
2026-04-26 20:27 33.92955 -103.15134 35629 ft 374 kts 277°
2026-04-26 20:28 33.94081 -103.21252 35626 ft 374 kts 277°
2026-04-26 20:28 33.95204 -103.27370 35627 ft 374 kts 277°
2026-04-26 20:29 33.96324 -103.33489 35626 ft 374 kts 277°
2026-04-26 20:29 33.97441 -103.39614 35625 ft 374 kts 277°
2026-04-26 20:30 33.98553 -103.45728 35624 ft 373 kts 277°
2026-04-26 20:30 33.99654 -103.51799 35624 ft 373 kts 276°
2026-04-26 20:31 34.00756 -103.57898 35619 ft 372 kts 276°
2026-04-26 20:31 34.01853 -103.63987 35611 ft 372 kts 276°
2026-04-26 20:32 34.02947 -103.70073 35603 ft 371 kts 276°
2026-04-26 20:32 34.04038 -103.76159 35592 ft 371 kts 276°
2026-04-26 20:33 34.05125 -103.82245 35578 ft 371 kts 276°
2026-04-26 20:33 34.06209 -103.88332 35557 ft 371 kts 276°
2026-04-26 20:34 34.07289 -103.94418 35550 ft 371 kts 276°
2026-04-26 20:34 34.08361 -104.00471 35547 ft 371 kts 276°
2026-04-26 20:35 34.09437 -104.06567 35548 ft 371 kts 276°
2026-04-26 20:35 34.10510 -104.12664 35550 ft 371 kts 276°
2026-04-26 20:36 34.11579 -104.18759 35556 ft 371 kts 276°
2026-04-26 20:36 34.12646 -104.24860 35560 ft 372 kts 276°
2026-04-26 20:37 34.13711 -104.30969 35563 ft 372 kts 276°
2026-04-26 20:37 34.14771 -104.37073 35567 ft 372 kts 276°
2026-04-26 20:38 34.15832 -104.43194 35573 ft 372 kts 275°
2026-04-26 20:38 34.16890 -104.49321 35575 ft 373 kts 275°
2026-04-26 20:39 34.17939 -104.55413 35586 ft 373 kts 275°
2026-04-26 20:39 34.18993 -104.61556 35586 ft 374 kts 275°
2026-04-26 20:40 34.20047 -104.67721 35592 ft 375 kts 275°
2026-04-26 20:40 34.21101 -104.73899 35597 ft 376 kts 275°
2026-04-26 20:41 34.22154 -104.80088 35608 ft 376 kts 275°
2026-04-26 20:41 34.23205 -104.86292 35611 ft 378 kts 275°
2026-04-26 20:42 34.24256 -104.92516 35620 ft 378 kts 275°
2026-04-26 20:42 34.25305 -104.98749 35625 ft 379 kts 275°
2026-04-26 20:43 34.26353 -105.04989 35639 ft 379 kts 275°
2026-04-26 20:43 34.27396 -105.11228 35647 ft 379 kts 275°
2026-04-26 20:44 34.28431 -105.17435 35651 ft 379 kts 275°
2026-04-26 20:44 34.29470 -105.23683 35656 ft 379 kts 275°
2026-04-26 20:45 34.30505 -105.29927 35661 ft 379 kts 275°
2026-04-26 20:45 34.31538 -105.36170 35678 ft 378 kts 275°
2026-04-26 20:46 34.32562 -105.42389 35682 ft 376 kts 275°
2026-04-26 20:46 34.33580 -105.48581 35690 ft 374 kts 275°
2026-04-26 20:47 34.34589 -105.54741 35693 ft 373 kts 275°
2026-04-26 20:47 34.35591 -105.60886 35695 ft 371 kts 275°
2026-04-26 20:48 34.36575 -105.67010 35700 ft 368 kts 272°
2026-04-26 20:48 34.36578 -105.73086 35691 ft 361 kts 265°
2026-04-26 20:49 34.36469 -105.79156 35698 ft 360 kts 264°
2026-04-26 20:49 34.36342 -105.85214 35695 ft 360 kts 264°
2026-04-26 20:50 34.36213 -105.91230 35696 ft 360 kts 264°
2026-04-26 20:50 34.36079 -105.97274 35695 ft 359 kts 264°
2026-04-26 20:51 34.35943 -106.03314 35687 ft 359 kts 264°
2026-04-26 20:51 34.35803 -106.09352 35678 ft 358 kts 264°
2026-04-26 20:52 34.35661 -106.15375 35679 ft 358 kts 264°
2026-04-26 20:52 34.35516 -106.21407 35666 ft 359 kts 264°
2026-04-26 20:53 34.35367 -106.27445 35661 ft 359 kts 264°
2026-04-26 20:53 34.35216 -106.33486 35663 ft 360 kts 264°
2026-04-26 20:54 34.35062 -106.39498 35644 ft 359 kts 264°
2026-04-26 20:54 34.34905 -106.45538 35638 ft 359 kts 264°
2026-04-26 20:55 34.34745 -106.51586 35630 ft 359 kts 264°
2026-04-26 20:55 34.34582 -106.57630 35617 ft 360 kts 264°
2026-04-26 20:56 34.34415 -106.63696 35610 ft 361 kts 263°
2026-04-26 20:56 34.34244 -106.69772 35611 ft 362 kts 263°
2026-04-26 20:57 34.34071 -106.75867 35628 ft 362 kts 263°
2026-04-26 20:57 34.33926 -106.81972 35632 ft 365 kts 268°
2026-04-26 20:58 34.34290 -106.88124 35635 ft 367 kts 268°
2026-04-26 20:58 34.34581 -106.94291 35640 ft 368 kts 268°
2026-04-26 20:59 34.34854 -107.00428 35634 ft 367 kts 268°
2026-04-26 20:59 34.35124 -107.06599 35621 ft 367 kts 268°
2026-04-26 21:00 34.35391 -107.12763 35625 ft 367 kts 268°
2026-04-26 21:00 34.35655 -107.18928 35626 ft 366 kts 267°
2026-04-26 21:01 34.35916 -107.25091 35632 ft 366 kts 267°
2026-04-26 21:01 34.36173 -107.31248 35646 ft 366 kts 267°
2026-04-26 21:02 34.36427 -107.37394 35653 ft 366 kts 267°
2026-04-26 21:02 34.36677 -107.43537 35655 ft 365 kts 267°
2026-04-26 21:03 34.36923 -107.49658 35661 ft 364 kts 267°
2026-04-26 21:03 34.37166 -107.55773 35660 ft 363 kts 267°
2026-04-26 21:04 34.37406 -107.61876 35668 ft 362 kts 267°
2026-04-26 21:04 34.37640 -107.67914 35664 ft 362 kts 267°
2026-04-26 21:05 34.37872 -107.73990 35662 ft 361 kts 267°
2026-04-26 21:05 34.38102 -107.80070 35670 ft 360 kts 267°
2026-04-26 21:06 34.38328 -107.86128 35676 ft 361 kts 267°
2026-04-26 21:06 34.38551 -107.92204 35670 ft 361 kts 267°
2026-04-26 21:07 34.38770 -107.98257 35670 ft 360 kts 267°
2026-04-26 21:07 34.38986 -108.04270 35679 ft 359 kts 267°
2026-04-26 21:08 34.39199 -108.10309 35681 ft 359 kts 267°
2026-04-26 21:08 34.39409 -108.16338 35670 ft 358 kts 267°
2026-04-26 21:09 34.39615 -108.22360 35681 ft 358 kts 267°
2026-04-26 21:09 34.39819 -108.28379 35678 ft 358 kts 267°
2026-04-26 21:10 34.40019 -108.34388 35682 ft 357 kts 267°
2026-04-26 21:10 34.40216 -108.40395 35680 ft 357 kts 267°
2026-04-26 21:11 34.40411 -108.46395 35675 ft 356 kts 267°
2026-04-26 21:11 34.40601 -108.52382 35683 ft 356 kts 267°
2026-04-26 21:12 34.40788 -108.58331 35690 ft 356 kts 267°
2026-04-26 21:12 34.40973 -108.64326 35686 ft 356 kts 267°
2026-04-26 21:13 34.41156 -108.70329 35690 ft 356 kts 267°
2026-04-26 21:13 34.41335 -108.76326 35692 ft 356 kts 266°
2026-04-26 21:14 34.41511 -108.82320 35692 ft 356 kts 266°
2026-04-26 21:14 34.41685 -108.88319 35696 ft 356 kts 266°
2026-04-26 21:15 34.41856 -108.94313 35700 ft 356 kts 266°
2026-04-26 21:15 34.42025 -109.00310 35728 ft 356 kts 266°
2026-04-26 21:16 34.42191 -109.06261 35767 ft 356 kts 266°
2026-04-26 21:16 34.42353 -109.12263 35798 ft 356 kts 266°
2026-04-26 21:17 34.42885 -109.18270 35826 ft 360 kts 270°
2026-04-26 21:17 34.43490 -109.24287 35860 ft 360 kts 270°
2026-04-26 21:18 34.43974 -109.29299 35889 ft 360 kts 270°
2026-04-26 21:18 34.44550 -109.35321 35896 ft 360 kts 270°
2026-04-26 21:19 34.45122 -109.41348 35900 ft 360 kts 270°
2026-04-26 21:19 34.45690 -109.47364 35894 ft 360 kts 270°
2026-04-26 21:20 34.46256 -109.53381 35863 ft 359 kts 270°
2026-04-26 21:20 34.46818 -109.59397 35842 ft 359 kts 270°
2026-04-26 21:21 34.47378 -109.65410 35813 ft 359 kts 270°
2026-04-26 21:21 34.47934 -109.71426 35786 ft 359 kts 270°
2026-04-26 21:22 34.48487 -109.77444 35802 ft 359 kts 270°
2026-04-26 21:22 34.49037 -109.83459 35828 ft 359 kts 270°
2026-04-26 21:23 34.49857 -109.92481 35875 ft 359 kts 270°
2026-04-26 21:23 34.50395 -109.98452 35910 ft 359 kts 270°
2026-04-26 21:24 34.50935 -110.04472 35931 ft 359 kts 270°
2026-04-26 21:24 34.51473 -110.10498 35909 ft 360 kts 270°
2026-04-26 21:25 34.52008 -110.16537 35927 ft 360 kts 270°
2026-04-26 21:25 34.52542 -110.22582 35905 ft 361 kts 270°
2026-04-26 21:26 34.53073 -110.28640 35883 ft 361 kts 270°
2026-04-26 21:26 34.53602 -110.34713 35855 ft 362 kts 270°
2026-04-26 21:27 34.54128 -110.40785 35827 ft 362 kts 270°
2026-04-26 21:27 34.54653 -110.46870 35803 ft 363 kts 270°
2026-04-26 21:28 34.55172 -110.52926 35779 ft 363 kts 270°
2026-04-26 21:28 34.55692 -110.59027 35787 ft 364 kts 270°
2026-04-26 21:29 34.56210 -110.65149 35783 ft 365 kts 270°
2026-04-26 21:29 34.56726 -110.71284 35797 ft 366 kts 270°
2026-04-26 21:30 34.57240 -110.77426 35806 ft 366 kts 270°
2026-04-26 21:30 34.57751 -110.83577 35797 ft 366 kts 270°
2026-04-26 21:31 34.58259 -110.89728 35810 ft 366 kts 270°
2026-04-26 21:31 34.58761 -110.95839 35817 ft 366 kts 270°
2026-04-26 21:32 34.59263 -111.01989 35822 ft 366 kts 270°
2026-04-26 21:32 34.59762 -111.08144 35830 ft 367 kts 270°
2026-04-26 21:33 34.60258 -111.14308 35837 ft 366 kts 270°
2026-04-26 21:33 34.60751 -111.20461 35842 ft 366 kts 269°
2026-04-26 21:34 34.61240 -111.26599 35848 ft 365 kts 269°
2026-04-26 21:34 34.61724 -111.32734 35850 ft 364 kts 269°
2026-04-26 21:35 34.62204 -111.38849 35847 ft 363 kts 269°
2026-04-26 21:35 34.62681 -111.44953 35845 ft 363 kts 269°
2026-04-26 21:36 34.63151 -111.51020 35845 ft 363 kts 269°
2026-04-26 21:36 34.63621 -111.57126 35858 ft 363 kts 269°
2026-04-26 21:37 34.64089 -111.63241 35869 ft 364 kts 269°
2026-04-26 21:37 34.64553 -111.69350 35880 ft 364 kts 269°
2026-04-26 21:38 34.65015 -111.75474 35888 ft 364 kts 269°
2026-04-26 21:38 34.65474 -111.81594 35889 ft 364 kts 269°
2026-04-26 21:39 34.65930 -111.87723 35887 ft 364 kts 269°
2026-04-26 21:39 34.66384 -111.93857 35871 ft 365 kts 269°
2026-04-26 21:40 34.66836 -112.00008 35855 ft 366 kts 269°
2026-04-26 21:40 34.67285 -112.06163 35836 ft 366 kts 269°
2026-04-26 21:41 34.67729 -112.12282 35885 ft 367 kts 269°
2026-04-26 21:41 34.68173 -112.18455 35901 ft 367 kts 269°
2026-04-26 21:42 34.68616 -112.24638 35925 ft 367 kts 269°
2026-04-26 21:42 34.69056 -112.30824 35958 ft 368 kts 269°
2026-04-26 21:43 34.69494 -112.37028 35963 ft 369 kts 269°
2026-04-26 21:43 34.69930 -112.43246 35965 ft 369 kts 269°
2026-04-26 21:44 34.70073 -112.49434 35961 ft 362 kts 258°
2026-04-26 21:44 34.69375 -112.55520 35948 ft 364 kts 259°
2026-04-26 21:45 34.68669 -112.61629 35925 ft 365 kts 259°
2026-04-26 21:45 34.67958 -112.67690 35891 ft 365 kts 259°
2026-04-26 21:46 34.67237 -112.73800 35873 ft 366 kts 259°
2026-04-26 21:46 34.66512 -112.79918 35842 ft 366 kts 259°
2026-04-26 21:47 34.65783 -112.86040 35818 ft 367 kts 259°
2026-04-26 21:47 34.65050 -112.92170 35827 ft 367 kts 259°
2026-04-26 21:48 34.64314 -112.98303 35818 ft 366 kts 259°
2026-04-26 21:48 34.63575 -113.04425 35825 ft 367 kts 259°
2026-04-26 21:49 34.62838 -113.10513 35822 ft 367 kts 259°
2026-04-26 21:49 34.62092 -113.16644 35824 ft 367 kts 259°
2026-04-26 21:50 34.61469 -113.21741 35816 ft 367 kts 259°
2026-04-26 21:50 34.60591 -113.28903 35820 ft 367 kts 259°
2026-04-26 21:51 34.59836 -113.35028 35817 ft 368 kts 259°
2026-04-26 21:51 34.59076 -113.41166 35819 ft 368 kts 259°
2026-04-26 21:52 34.58314 -113.47306 35815 ft 368 kts 259°
2026-04-26 21:52 34.57547 -113.53444 35816 ft 368 kts 259°
2026-04-26 21:53 34.56784 -113.59545 35820 ft 368 kts 259°
2026-04-26 21:53 34.56057 -113.65694 35818 ft 369 kts 260°
2026-04-26 21:54 34.55377 -113.71872 35816 ft 369 kts 259°
2026-04-26 21:54 34.54688 -113.78046 35814 ft 369 kts 259°
2026-04-26 21:55 34.53994 -113.84237 35816 ft 370 kts 259°
2026-04-26 21:55 34.53298 -113.90418 35813 ft 370 kts 259°
2026-04-26 21:56 34.52597 -113.96606 35822 ft 370 kts 259°
2026-04-26 21:56 34.51893 -114.02798 35831 ft 371 kts 259°
2026-04-26 21:57 34.50863 -114.08899 35863 ft 370 kts 255°
2026-04-26 21:57 34.49601 -114.14940 35859 ft 370 kts 254°
2026-04-26 21:58 34.48333 -114.20945 35868 ft 370 kts 254°
2026-04-26 21:58 34.47052 -114.26986 35868 ft 370 kts 254°
2026-04-26 21:59 34.45767 -114.33027 35873 ft 370 kts 254°
2026-04-26 21:59 34.44481 -114.39062 35870 ft 370 kts 254°
2026-04-26 22:00 34.43189 -114.45106 35867 ft 371 kts 254°
2026-04-26 22:00 34.41893 -114.51152 35854 ft 370 kts 254°
2026-04-26 22:01 34.40596 -114.57191 35853 ft 370 kts 254°
2026-04-26 22:01 34.39297 -114.63222 35843 ft 370 kts 254°
2026-04-26 22:02 34.38215 -114.68228 35837 ft 370 kts 254°
2026-04-26 22:02 34.37349 -114.72233 35607 ft 370 kts 254°
2026-04-26 22:02 34.36697 -114.75242 35419 ft 370 kts 254°
2026-04-26 22:03 34.36043 -114.78256 35223 ft 370 kts 254°
2026-04-26 22:03 34.35390 -114.81263 35034 ft 370 kts 254°
2026-04-26 22:03 34.34734 -114.84280 34853 ft 371 kts 254°
2026-04-26 22:03 34.34078 -114.87296 34671 ft 371 kts 254°
2026-04-26 22:04 34.33419 -114.90318 34489 ft 371 kts 254°
2026-04-26 22:04 34.32759 -114.93338 34310 ft 372 kts 254°
2026-04-26 22:04 34.32097 -114.96358 34126 ft 372 kts 254°
2026-04-26 22:04 34.31434 -114.99383 33945 ft 372 kts 254°
2026-04-26 22:05 34.30770 -115.02409 33749 ft 372 kts 254°
2026-04-26 22:05 34.30104 -115.05441 33523 ft 373 kts 254°
2026-04-26 22:05 34.29436 -115.08475 33310 ft 375 kts 254°
2026-04-26 22:05 34.28763 -115.11532 33096 ft 376 kts 254°
2026-04-26 22:06 34.28087 -115.14594 32879 ft 378 kts 254°
2026-04-26 22:06 34.27408 -115.17670 32661 ft 379 kts 254°
2026-04-26 22:06 34.26727 -115.20755 32450 ft 381 kts 254°
2026-04-26 22:06 34.26069 -115.23859 32235 ft 382 kts 255°
2026-04-26 22:07 34.25407 -115.26979 32018 ft 384 kts 255°
2026-04-26 22:07 34.24740 -115.30108 31859 ft 385 kts 255°
2026-04-26 22:07 34.23627 -115.35320 31843 ft 387 kts 255°
2026-04-26 22:08 34.22050 -115.42683 31846 ft 387 kts 255°
2026-04-26 22:08 34.20699 -115.48971 31834 ft 385 kts 254°
2026-04-26 22:09 34.19578 -115.54177 31766 ft 388 kts 255°
2026-04-26 22:09 34.18677 -115.58354 31484 ft 388 kts 255°
2026-04-26 22:09 34.17996 -115.61506 31281 ft 389 kts 255°
2026-04-26 22:10 34.17311 -115.64671 31067 ft 390 kts 255°
2026-04-26 22:10 34.16625 -115.67842 30854 ft 391 kts 255°
2026-04-26 22:10 34.16283 -115.70026 30705 ft 393 kts 262°
2026-04-26 22:10 34.15979 -115.73308 30510 ft 394 kts 261°
2026-04-26 22:11 34.15654 -115.76605 30302 ft 396 kts 261°
2026-04-26 22:11 34.15333 -115.79908 30110 ft 398 kts 262°
2026-04-26 22:11 34.15011 -115.83231 29903 ft 399 kts 262°
2026-04-26 22:11 34.14687 -115.86573 29670 ft 401 kts 261°
2026-04-26 22:12 34.14361 -115.89926 29428 ft 403 kts 262°
2026-04-26 22:12 34.14033 -115.93289 29184 ft 405 kts 262°
2026-04-26 22:12 34.13707 -115.96623 28959 ft 406 kts 262°
2026-04-26 22:12 34.13376 -116.00019 28723 ft 408 kts 262°
2026-04-26 22:13 34.13045 -116.03411 28409 ft 404 kts 262°
2026-04-26 22:13 34.12718 -116.06747 27926 ft 396 kts 262°
2026-04-26 22:13 34.12397 -116.10007 27464 ft 389 kts 262°
2026-04-26 22:13 34.12072 -116.13299 26963 ft 402 kts 262°
2026-04-26 22:14 34.11737 -116.16699 26441 ft 412 kts 262°
2026-04-26 22:14 34.11394 -116.20158 25947 ft 417 kts 262°
2026-04-26 22:14 34.11047 -116.23654 25456 ft 421 kts 262°
2026-04-26 22:14 34.10698 -116.27154 24980 ft 421 kts 262°
2026-04-26 22:15 34.10338 -116.30658 24523 ft 419 kts 262°
2026-04-26 22:15 34.09966 -116.34139 24072 ft 417 kts 262°
2026-04-26 22:15 34.09595 -116.37612 23877 ft 417 kts 262°
2026-04-26 22:15 34.09225 -116.41088 23859 ft 419 kts 262°
2026-04-26 22:16 34.08852 -116.44574 23865 ft 419 kts 262°
2026-04-26 22:16 34.08479 -116.48058 23867 ft 420 kts 262°
2026-04-26 22:16 34.08105 -116.51535 23864 ft 407 kts 262°
2026-04-26 22:16 34.07755 -116.54788 23872 ft 376 kts 262°
2026-04-26 22:17 34.07427 -116.57831 23878 ft 360 kts 262°
2026-04-26 22:17 34.07151 -116.60797 23746 ft 349 kts 262°
2026-04-26 22:17 34.06884 -116.63706 22783 ft 350 kts 263°
2026-04-26 22:17 34.06616 -116.66587 21932 ft 348 kts 263°
2026-04-26 22:18 34.06343 -116.69509 21138 ft 345 kts 263°
2026-04-26 22:18 34.06078 -116.72331 20416 ft 342 kts 263°
2026-04-26 22:18 34.05813 -116.75145 20015 ft 336 kts 263°
2026-04-26 22:18 34.05548 -116.77962 19925 ft 339 kts 263°
2026-04-26 22:19 34.05280 -116.80794 19903 ft 340 kts 263°
2026-04-26 22:19 34.05011 -116.83631 19917 ft 341 kts 263°
2026-04-26 22:19 34.04742 -116.86467 19912 ft 341 kts 263°
2026-04-26 22:19 34.04437 -116.89304 19927 ft 341 kts 261°
2026-04-26 22:20 34.04070 -116.92122 19947 ft 341 kts 261°
2026-04-26 22:20 34.03709 -116.94943 19937 ft 340 kts 261°
2026-04-26 22:20 34.03407 -116.97770 19937 ft 340 kts 264°
2026-04-26 22:20 34.03203 -117.00615 19901 ft 340 kts 265°
2026-04-26 22:21 34.03101 -117.03460 19802 ft 340 kts 268°
2026-04-26 22:21 34.03056 -117.06310 19415 ft 340 kts 263°
2026-04-26 22:21 34.02708 -117.09120 19001 ft 339 kts 260°
2026-04-26 22:21 34.02316 -117.11919 18584 ft 338 kts 260°
2026-04-26 22:22 34.01925 -117.14704 18141 ft 337 kts 260°
2026-04-26 22:22 34.01540 -117.17486 17663 ft 336 kts 260°
2026-04-26 22:22 34.01158 -117.20259 17187 ft 335 kts 260°
2026-04-26 22:22 34.00784 -117.23025 16722 ft 334 kts 260°
2026-04-26 22:23 34.00408 -117.25790 16255 ft 333 kts 260°
2026-04-26 22:23 34.00034 -117.28536 15803 ft 332 kts 260°
2026-04-26 22:23 33.99659 -117.31278 15347 ft 332 kts 260°
2026-04-26 22:23 33.99284 -117.34019 14910 ft 331 kts 260°
2026-04-26 22:24 33.98908 -117.36755 14482 ft 330 kts 260°
2026-04-26 22:24 33.98534 -117.39475 14039 ft 329 kts 260°
2026-04-26 22:24 33.98162 -117.42187 13590 ft 328 kts 260°
2026-04-26 22:24 33.97789 -117.44894 13111 ft 326 kts 260°
2026-04-26 22:25 33.97420 -117.47587 12639 ft 325 kts 261°
2026-04-26 22:25 33.97501 -117.50300 12147 ft 327 kts 280°
2026-04-26 22:25 33.97991 -117.52971 11697 ft 326 kts 279°
2026-04-26 22:25 33.98457 -117.55643 11246 ft 325 kts 280°
2026-04-26 22:26 33.98924 -117.58301 10791 ft 324 kts 280°
2026-04-26 22:26 33.99393 -117.60956 10342 ft 323 kts 280°
2026-04-26 22:26 33.99858 -117.63588 10072 ft 317 kts 280°
2026-04-26 22:26 34.00307 -117.66133 10057 ft 305 kts 280°
2026-04-26 22:27 34.00625 -117.68641 9997 ft 301 kts 268°
2026-04-26 22:27 34.00403 -117.71109 9990 ft 300 kts 263°
2026-04-26 22:27 34.00164 -117.73639 9986 ft 300 kts 263°
2026-04-26 22:27 33.99933 -117.76046 9887 ft 280 kts 263°
2026-04-26 22:28 33.99713 -117.78303 9527 ft 270 kts 263°
2026-04-26 22:28 33.99498 -117.80505 9197 ft 259 kts 263°
2026-04-26 22:28 33.99289 -117.82655 8811 ft 252 kts 263°
2026-04-26 22:28 33.99087 -117.84720 8288 ft 251 kts 263°
2026-04-26 22:29 33.98885 -117.86803 7773 ft 250 kts 263°
2026-04-26 22:29 33.98683 -117.88876 7312 ft 248 kts 263°
2026-04-26 22:29 33.98481 -117.90936 6851 ft 247 kts 263°
2026-04-26 22:29 33.98281 -117.92972 6487 ft 244 kts 263°
2026-04-26 22:30 33.98081 -117.94998 6030 ft 242 kts 262°
2026-04-26 22:30 33.97882 -117.97017 5507 ft 243 kts 263°
2026-04-26 22:30 33.97684 -117.99026 5004 ft 242 kts 263°
2026-04-26 22:30 33.97484 -118.01044 4531 ft 241 kts 263°
2026-04-26 22:31 33.97286 -118.03040 4103 ft 239 kts 263°
2026-04-26 22:31 33.97091 -118.05016 3682 ft 237 kts 262°
2026-04-26 22:31 33.96897 -118.06970 3303 ft 232 kts 262°
2026-04-26 22:31 33.96705 -118.08902 2864 ft 230 kts 262°
2026-04-26 22:32 33.96517 -118.10786 2516 ft 226 kts 262°
2026-04-26 22:32 33.96333 -118.12629 2375 ft 215 kts 262°
2026-04-26 22:32 33.96165 -118.14321 2299 ft 186 kts 262°
2026-04-26 22:32 33.96023 -118.15751 2289 ft 168 kts 262°
2026-04-26 22:33 33.95881 -118.17155 2259 ft 170 kts 263°
2026-04-26 22:33 33.95599 -118.19966 2227 ft 168 kts 262°
2026-04-26 22:33 33.95457 -118.21379 2225 ft 171 kts 262°
2026-04-26 22:34 33.95314 -118.22794 2226 ft 170 kts 261°
2026-04-26 22:34 33.95170 -118.24210 2230 ft 170 kts 262°
2026-04-26 22:34 33.95026 -118.25624 2212 ft 170 kts 262°
2026-04-26 22:34 33.94884 -118.26992 2023 ft 157 kts 262°
2026-04-26 22:35 33.94758 -118.28229 1826 ft 141 kts 261°
2026-04-26 22:35 33.94644 -118.29340 1645 ft 130 kts 262°
2026-04-26 22:35 33.94535 -118.30415 1524 ft 130 kts 262°
2026-04-26 22:35 33.94425 -118.31495 1381 ft 129 kts 262°
2026-04-26 22:36 33.94318 -118.32563 1157 ft 128 kts 262°
2026-04-26 22:36 33.94208 -118.33623 958 ft 128 kts 262°
2026-04-26 22:36 33.94102 -118.34658 764 ft 121 kts 264°
2026-04-26 22:36 33.93983 -118.35737 599 ft 135 kts 264°
2026-04-26 22:37 33.93880 -118.36802 353 ft 126 kts 265°
2026-04-26 22:37 33.93782 -118.37881 238 ft 134 kts 261°
2026-04-26 22:37 33.93681 -118.38930 128 ft 117 kts 259°
2026-04-26 22:37 33.93590 -118.39679 128 ft 57 kts 263°
2026-04-26 22:38 33.93564 -118.40024 128 ft 40 kts 271°
2026-04-26 22:38 33.93585 -118.40239 127 ft 0 kts 287°
2026-04-26 22:38 33.93587 -118.40248 124 ft 3 kts 287°
2026-04-26 22:38 33.93605 -118.40305 126 ft 13 kts 291°
2026-04-26 22:39 33.93626 -118.40436 128 ft 18 kts 268°
2026-04-26 22:39 33.93609 -118.40597 126 ft 20 kts 261°
2026-04-26 22:39 33.93595 -118.40770 127 ft 22 kts 275°
2026-04-26 22:39 33.93657 -118.40896 126 ft 17 kts 349°
2026-04-26 22:40 33.93780 -118.40912 127 ft 16 kts 353°
2026-04-26 22:40 33.93847 -118.40921 126 ft 9 kts
2026-04-26 22:40 33.93874 -118.40854 128 ft 11 kts 82°
2026-04-26 22:40 33.93929 -118.40811 126 ft 7 kts 359°
2026-04-26 22:41 33.93949 -118.40801 126 ft 0 kts 57°
2026-04-26 22:41 33.93934 -118.40780 127 ft 7 kts 138°
2026-04-26 22:41 33.93921 -118.40743 126 ft 0 kts 54°
2026-04-26 22:41 33.93937 -118.40731 124 ft 7 kts 42°
2026-04-26 22:42 33.93945 -118.40722 124 ft 0 kts 45°